[[{"header":{"parameterUnit":"m.s-1","parameterCategory":1,"la1":30.2991,"la2":30.254,"lo1":-89.0895,"lo2":-89.0444,"dx":0.0017,"dy":0.0017,"nx":28,"ny":28,"refTime":"2022-11-07T09:00:00:Z","depth":0,"parameterNumber":2,"parameterNumberName":"U-component_of_WINDS"},"data":[0,0,0,0,0,0,0,0,0,0,0,0,0,0,0,0,0,0,0,0,0,0,0,0,0,0,0,0,0,0,0,0,0,0,0,0,0,0,0,0,0,0,0,0,0,0,0,0,0,0,0,0,0,0,0,0,0,0,-1.4877,-1.4878,0,-1.4957,-1.4958,-1.4959,-1.492,-1.4918,-1.4916,-1.4914,-1.4999,-1.5003,-1.5007,0,0,0,0,0,0,0,0,0,0,0,0,0,-1.4692,-1.4696,-1.4877,-1.4878,-1.4879,-1.4957,-1.4958,-1.4959,-1.4921,-1.4918,-1.4916,-1.4914,-1.4997,-1.5002,-1.5007,0,0,0,0,0,0,0,0,0,0,0,0,0,-1.4773,-1.4697,-1.4877,-1.4869,-1.4869,-1.4957,-1.4958,-1.4959,-1.4921,-1.4918,-1.4915,-1.4912,-1.4996,-1.5002,-1.5008,-1.5108,0,0,-1.5027,-1.503,0,0,0,0,0,0,0,0,-1.4768,-1.4779,-1.4869,-1.487,-1.487,-1.4925,-1.4924,-1.5009,-1.4922,-1.4902,-1.4914,-1.4911,-1.4977,-1.4985,-1.5006,-1.5112,-1.5116,-1.5028,-1.5031,-1.5034,-1.5036,0,0,0,0,0,0,0,-1.4763,-1.4776,-1.4909,-1.4871,-1.4871,-1.4862,-1.487,-1.494,-1.4956,-1.4903,-1.4901,-1.491,-1.4977,-1.5001,-1.5008,-1.5117,-1.5027,-1.5033,-1.5037,-1.5039,-1.5309,-1.5312,0,0,0,0,0,0,-1.4757,-1.4771,-1.4906,-1.4911,-1.481,-1.4868,-1.4877,-1.4911,-1.4955,-1.4959,-1.4913,-1.4908,-1.4991,-1.5001,-1.5011,-1.5132,-1.5034,-1.504,-1.5043,-1.5305,-1.5309,-1.5313,0,0,0,0,0,0,-1.4753,-1.4769,-1.4903,-1.4841,-1.4857,-1.4874,-1.4913,-1.4914,-1.4938,-1.4962,-1.4965,-1.4935,-1.4989,-1.5002,-1.5084,-1.5134,-1.5043,-1.5048,-1.5301,-1.5307,-1.5311,-1.5375,0,0,0,0,0,0,-1.4748,-1.4768,-1.4806,-1.4842,-1.486,-1.4975,-1.4916,-1.4918,-1.4949,-1.4943,-1.4983,-1.4987,-1.4988,-1.5075,-1.509,-1.5141,-1.5053,-1.5297,-1.5304,-1.531,-1.5368,-1.5381,-1.5392,0,0,0,0,0,-1.4742,-1.4821,-1.4809,-1.4825,-1.4908,-1.4978,-1.4988,-1.4987,-1.4953,-1.4992,-1.5007,-1.4985,-1.5126,-1.5084,-1.5101,-1.5154,-1.5294,-1.5302,-1.5309,-1.5363,-1.5379,-1.5392,0,0,0,0,0,0,-1.4793,-1.4826,-1.4812,-1.4905,-1.4939,-1.4971,-1.502,-1.5004,-1.5049,-1.5042,-1.5039,-1.5049,-1.5134,-1.5152,-1.5104,-1.5253,-1.5204,-1.5216,-1.5239,-1.5255,-1.5267,-1.5262,-1.5058,0,0,0,0,0,-1.4814,-1.4868,-1.4894,-1.4974,-1.4991,-1.5003,-1.5033,-1.5029,-1.5064,-1.5078,-1.5099,-1.5135,-1.5187,-1.5221,-1.527,-1.5369,-1.5378,-1.5414,-1.5426,-1.5436,-1.5447,-1.5502,-1.5519,-1.5338,-1.5338,-1.5338,0,0,-1.4861,-1.4886,-1.492,-1.4985,-1.501,-1.5066,-1.5015,-1.5076,-1.5118,-1.5087,-1.5167,-1.5183,-1.5222,-1.5313,-1.5355,-1.5331,-1.5498,-1.5446,-1.5454,-1.546,-1.5512,-1.5529,-1.5544,-1.5344,-1.5343,-1.5342,0,0,-1.4975,-1.4998,-1.5067,-1.5093,-1.5132,-1.5139,-1.5155,-1.519,-1.52,-1.5278,-1.5257,-1.5306,-1.5396,-1.5425,-1.5451,-1.5573,-1.5556,-1.5589,-1.5654,-1.5707,-1.5722,-1.5734,-1.578,-1.5796,-1.5599,-1.56,-1.56,0,-1.5028,-1.5111,-1.5105,-1.5168,-1.5198,-1.5171,-1.5242,-1.5268,-1.5321,-1.5343,-1.5314,-1.5426,-1.545,-1.5548,-1.5578,-1.5599,-1.5619,-1.5586,-1.572,-1.5732,-1.5744,-1.5788,-1.5804,-1.5603,-1.5603,-1.5603,-1.5602,0,-1.5175,-1.5232,-1.5284,-1.5335,-1.537,-1.5437,-1.5442,-1.5478,-1.547,-1.548,-1.5561,-1.5589,-1.5643,-1.5665,-1.5659,-1.5763,-1.5747,-1.5719,-1.5671,-1.5765,-1.5806,-1.5823,-1.5609,-1.5608,-1.5607,-1.5606,0,0,-1.5326,-1.5372,-1.5391,-1.5414,-1.5454,-1.5499,-1.5564,-1.5616,-1.5648,-1.5684,-1.574,-1.5815,-1.579,-1.582,-1.5816,-1.5862,-1.5959,-1.5829,-1.583,-1.5854,-1.6077,-1.61,-1.6119,-1.5946,-1.5949,-1.5952,-1.6074,0,-1.5444,-1.5558,-1.5554,-1.5661,-1.5714,-1.5689,-1.5746,-1.5776,-1.5787,-1.5834,-1.5845,-1.59,-1.5861,-1.5879,-1.5923,-1.5938,-1.6004,-1.5929,-1.6,-1.6002,-1.5994,-1.614,-1.6164,-1.6279,-1.609,-1.6093,-1.6095,0,-1.5598,-1.5639,-1.5751,-1.5783,-1.5805,-1.5856,-1.5904,-1.5949,-1.5983,-1.5987,-1.602,-1.6008,-1.6074,-1.6021,-1.6114,-1.6062,-1.609,-1.6102,-1.6106,-1.6115,-1.6057,-1.6155,-1.6315,-1.6333,-1.6119,-1.6117,-1.6116,0,-1.57,-1.5783,-1.5861,-1.5881,-1.5919,-1.5956,-1.5974,-1.6004,-1.6036,-1.6077,-1.6098,-1.6147,-1.6174,-1.6212,-1.6214,-1.6175,-1.6308,-1.6254,-1.6315,-1.6315,-1.6346,-1.6345,-1.6515,-1.636,-1.636,-1.6359,-1.6359,0,-1.5834,-1.5904,-1.5907,-1.5955,-1.6033,-1.6027,-1.6104,-1.6118,-1.6146,-1.6197,-1.6176,-1.6225,-1.6223,-1.6272,-1.6273,-1.635,-1.6362,-1.6369,-1.6369,-1.6372,-1.6372,-1.6393,-1.6386,-1.6364,-1.6363,-1.6362,-1.6361,0,-1.5962,-1.5967,-1.605,-1.6079,-1.6088,-1.6144,-1.6169,-1.6215,-1.6222,-1.6286,-1.6301,-1.6314,-1.637,-1.6375,-1.644,-1.6441,-1.6535,-1.6525,-1.6524,-1.6523,-1.6584,-1.6579,-1.6776,-1.6803,-1.6628,-1.6629,-1.6631,0,-1.6049,-1.6102,-1.6136,-1.6168,-1.6188,-1.624,-1.6272,-1.6268,-1.6302,-1.6344,-1.6385,-1.644,-1.6483,-1.6575,-1.659,-1.664,-1.6633,-1.6698,-1.6641,-1.6642,-1.6637,-1.6635,-1.6641,-1.6711,-1.6713,-1.6714,-1.6715,0,-1.6204,-1.6203,-1.6249,-1.6296,-1.6335,-1.6372,-1.6406,-1.6434,-1.6434,-1.6473,-1.653,-1.6564,-1.663,-1.6685,-1.6734,-1.6752,-1.6735,-1.6733,-1.675,-1.6756,-1.6754,-1.6758,-1.6558,-1.6729,-1.6728,-1.6727,-1.6726,-1.6726,-1.6316,-1.6362,-1.6393,-1.6445,-1.647,-1.6503,-1.6548,-1.656,-1.6607,-1.6661,-1.6655,-1.6719,-1.6751,-1.6814,-1.6836,-1.6886,-1.6864,-1.6888,-1.6895,-1.6902,-1.6909,-1.6743,-1.6895,-1.6894,-1.6894,-1.6894,-1.6893,0,-1.6471,-1.6489,-1.6537,-1.6586,-1.6627,-1.6604,-1.6641,-1.6677,-1.6733,-1.6764,-1.6807,-1.6873,-1.6925,-1.6943,-1.6995,-1.7031,-1.7025,-1.7045,-1.7044,-1.7049,-1.6925,-1.6906,-1.705,-1.705,-1.705,-1.705,-1.705,-1.7049,-1.6557,-1.6634,-1.6637,-1.6727,-1.6744,-1.6806,-1.6829,-1.6859,-1.6884,-1.6958,-1.7001,-1.7012,-1.7038,-1.709,-1.7138,-1.7142,-1.7163,-1.7187,-1.7188,-1.7073,-1.7057,-1.7042,-1.7025,-1.7191,-1.7191,-1.7308,-1.7309,-1.731]},{"header":{"parameterUnit":"m.s-1","parameterCategory":1,"la1":30.2991,"la2":30.254,"lo1":-89.0895,"lo2":-89.0444,"dx":0.0017,"dy":0.0017,"nx":28,"ny":28,"refTime":"2022-11-07T09:00:00:Z","depth":0,"parameterNumber":3,"parameterNumberName":"V-component_of_WINDS"},"data":[0,0,0,0,0,0,0,0,0,0,0,0,0,0,0,0,0,0,0,0,0,0,0,0,0,0,0,0,0,0,0,0,0,0,0,0,0,0,0,0,0,0,0,0,0,0,0,0,0,0,0,0,0,0,0,0,0,0,-2.4651,-2.4651,0,-2.4686,-2.4686,-2.4687,-2.4663,-2.4662,-2.4661,-2.466,-2.4693,-2.4694,-2.4696,0,0,0,0,0,0,0,0,0,0,0,0,0,-2.4559,-2.4561,-2.4651,-2.4651,-2.4651,-2.4686,-2.4686,-2.4687,-2.4663,-2.4662,-2.4661,-2.4659,-2.4692,-2.4694,-2.4696,0,0,0,0,0,0,0,0,0,0,0,0,0,-2.4597,-2.4561,-2.465,-2.4644,-2.4644,-2.4686,-2.4686,-2.4687,-2.4663,-2.4662,-2.466,-2.4659,-2.4691,-2.4694,-2.4697,-2.4746,0,0,-2.4705,-2.4707,0,0,0,0,0,0,0,0,-2.4595,-2.46,-2.4644,-2.4644,-2.4644,-2.4668,-2.4666,-2.4707,-2.4664,-2.4656,-2.466,-2.4658,-2.4686,-2.4689,-2.4699,-2.4748,-2.4749,-2.4706,-2.4707,-2.4708,-2.4709,0,0,0,0,0,0,0,-2.4592,-2.4599,-2.4664,-2.4645,-2.4645,-2.4638,-2.4642,-2.4674,-2.4679,-2.4656,-2.4655,-2.4659,-2.4685,-2.4696,-2.4699,-2.475,-2.4705,-2.4708,-2.471,-2.4711,-2.484,-2.4842,0,0,0,0,0,0,-2.4591,-2.4597,-2.4663,-2.4665,-2.4615,-2.4641,-2.4645,-2.4662,-2.4679,-2.468,-2.4661,-2.4658,-2.4692,-2.4696,-2.47,-2.4759,-2.4708,-2.4711,-2.4713,-2.4838,-2.484,-2.4842,0,0,0,0,0,0,-2.4589,-2.4597,-2.4662,-2.4631,-2.4638,-2.4644,-2.4664,-2.4664,-2.4675,-2.4682,-2.4683,-2.4671,-2.4691,-2.4697,-2.4735,-2.476,-2.4712,-2.4715,-2.4836,-2.4839,-2.4841,-2.4877,0,0,0,0,0,0,-2.4586,-2.4596,-2.4616,-2.4631,-2.464,-2.4697,-2.4665,-2.4666,-2.468,-2.4677,-2.4692,-2.4693,-2.469,-2.4731,-2.4738,-2.4763,-2.4717,-2.4834,-2.4838,-2.4841,-2.4874,-2.4881,-2.4887,0,0,0,0,0,-2.4583,-2.4624,-2.4617,-2.4625,-2.4665,-2.4699,-2.4704,-2.4701,-2.4682,-2.4701,-2.4706,-2.4693,-2.4756,-2.4735,-2.4743,-2.4769,-2.4832,-2.4837,-2.484,-2.4871,-2.4879,-2.4887,0,0,0,0,0,0,-2.461,-2.4626,-2.4618,-2.4666,-2.4681,-2.4695,-2.4719,-2.471,-2.473,-2.4726,-2.472,-2.4724,-2.4764,-2.477,-2.4747,-2.4817,-2.4791,-2.4797,-2.4812,-2.482,-2.4826,-2.4824,-2.4719,0,0,0,0,0,-2.4622,-2.4649,-2.4661,-2.4701,-2.471,-2.4713,-2.4728,-2.4724,-2.4739,-2.4745,-2.4753,-2.4767,-2.479,-2.4805,-2.4827,-2.4875,-2.4877,-2.4896,-2.4903,-2.4908,-2.4913,-2.4938,-2.4946,-2.4855,-2.4855,-2.4855,0,0,-2.4646,-2.4658,-2.4675,-2.4707,-2.4719,-2.4746,-2.4719,-2.4748,-2.4768,-2.4749,-2.4786,-2.4792,-2.4808,-2.4851,-2.487,-2.4857,-2.4939,-2.4913,-2.4917,-2.4919,-2.4943,-2.4951,-2.4959,-2.4858,-2.4858,-2.4857,0,0,-2.4704,-2.4716,-2.4751,-2.4764,-2.4782,-2.4784,-2.4792,-2.4807,-2.4811,-2.4848,-2.4834,-2.4857,-2.4897,-2.4909,-2.492,-2.4982,-2.497,-2.4989,-2.5022,-2.5047,-2.5054,-2.506,-2.5082,-2.509,-2.4994,-2.4994,-2.4994,0,-2.4732,-2.4773,-2.477,-2.4801,-2.4815,-2.4801,-2.4836,-2.4847,-2.4871,-2.488,-2.4866,-2.4916,-2.4925,-2.4971,-2.4986,-2.4995,-2.5004,-2.4987,-2.5053,-2.506,-2.5066,-2.5086,-2.5094,-2.4996,-2.4996,-2.4996,-2.4995,0,-2.4806,-2.4834,-2.486,-2.4885,-2.4902,-2.4935,-2.4936,-2.4953,-2.4948,-2.4951,-2.4989,-2.4999,-2.5023,-2.5033,-2.5028,-2.5078,-2.5069,-2.5054,-2.5028,-2.5076,-2.5096,-2.5104,-2.4999,-2.4998,-2.4998,-2.4997,0,0,-2.4882,-2.4905,-2.4914,-2.4925,-2.4944,-2.4966,-2.4997,-2.5021,-2.5036,-2.5052,-2.5078,-2.5113,-2.5099,-2.5111,-2.5107,-2.5129,-2.5177,-2.5111,-2.5111,-2.5122,-2.5231,-2.5243,-2.5252,-2.5169,-2.517,-2.5171,-2.523,0,-2.4941,-2.4997,-2.4995,-2.5048,-2.5074,-2.506,-2.5087,-2.5101,-2.5105,-2.5126,-2.513,-2.5154,-2.5134,-2.5142,-2.5162,-2.5166,-2.5198,-2.5162,-2.5192,-2.5193,-2.5188,-2.5262,-2.5274,-2.5329,-2.5238,-2.5239,-2.524,0,-2.5017,-2.5037,-2.5093,-2.5107,-2.5118,-2.5143,-2.5165,-2.5186,-2.5201,-2.5202,-2.5216,-2.5209,-2.5239,-2.5212,-2.5254,-2.5229,-2.5241,-2.5245,-2.5247,-2.5249,-2.5219,-2.5266,-2.5346,-2.5355,-2.5252,-2.5251,-2.525,0,-2.5067,-2.5108,-2.5146,-2.5156,-2.5174,-2.5192,-2.52,-2.5213,-2.5228,-2.5246,-2.5256,-2.5277,-2.5289,-2.5305,-2.5303,-2.5283,-2.5345,-2.5318,-2.5346,-2.5346,-2.5359,-2.5358,-2.5442,-2.5367,-2.5367,-2.5367,-2.5367,0,-2.5132,-2.5167,-2.5169,-2.5192,-2.523,-2.5227,-2.5264,-2.527,-2.5282,-2.5305,-2.5294,-2.5316,-2.5312,-2.5334,-2.5332,-2.5367,-2.5372,-2.5373,-2.5372,-2.5374,-2.5374,-2.5381,-2.5377,-2.5369,-2.5369,-2.5368,-2.5368,0,-2.5194,-2.5197,-2.5238,-2.5252,-2.5257,-2.5284,-2.5295,-2.5317,-2.5319,-2.5349,-2.5356,-2.536,-2.5385,-2.5384,-2.5412,-2.5411,-2.5453,-2.5448,-2.5449,-2.5448,-2.5476,-2.5473,-2.5567,-2.5579,-2.5497,-2.5497,-2.5498,0,-2.5236,-2.5262,-2.528,-2.5295,-2.5305,-2.533,-2.5345,-2.5342,-2.5358,-2.5377,-2.5396,-2.542,-2.544,-2.548,-2.5484,-2.5505,-2.55,-2.5532,-2.5503,-2.5504,-2.5501,-2.5499,-2.5501,-2.5538,-2.5538,-2.5539,-2.554,0,-2.531,-2.531,-2.5333,-2.5356,-2.5375,-2.5392,-2.5409,-2.5422,-2.5421,-2.5439,-2.5465,-2.548,-2.5509,-2.5533,-2.5553,-2.556,-2.555,-2.5549,-2.5556,-2.5558,-2.5558,-2.5558,-2.5464,-2.5547,-2.5546,-2.5545,-2.5545,-2.5545,-2.5363,-2.5385,-2.5401,-2.5426,-2.5439,-2.5454,-2.5475,-2.5481,-2.5503,-2.5527,-2.5524,-2.5553,-2.5566,-2.5593,-2.5602,-2.5623,-2.5612,-2.5623,-2.5626,-2.5628,-2.5632,-2.5554,-2.5627,-2.5627,-2.5627,-2.5626,-2.5626,0,-2.5436,-2.5445,-2.5469,-2.5493,-2.5512,-2.5502,-2.5519,-2.5536,-2.5562,-2.5576,-2.5596,-2.5625,-2.5648,-2.5654,-2.5676,-2.5692,-2.5688,-2.5698,-2.5696,-2.5698,-2.564,-2.5632,-2.5701,-2.5701,-2.5701,-2.5701,-2.5701,-2.5701,-2.5476,-2.5513,-2.5515,-2.5558,-2.5567,-2.5596,-2.5607,-2.5621,-2.5632,-2.5666,-2.5685,-2.569,-2.57,-2.5723,-2.5743,-2.5744,-2.5752,-2.5765,-2.5764,-2.571,-2.5702,-2.5695,-2.5687,-2.5766,-2.5767,-2.5819,-2.582,-2.582]}]]